�N����,����,�~����,�C��,���x,�C��,����,���ϕ���,�ő�u�ԕ���,�ő厞����,���˗�,�I�_���x,�n�����x,�ő啗���N��,DTYPE
"18/10/05","00:10",0.0,19.1,93.7,1018.5,39.5,0.5,1.9,41.7,0.00,18.1,20.5,"00:03:20",1
"18/10/05","00:20",0.0,19.4,92.9,1018.2,98.0,0.7,2.6,110.4,0.00,18.3,20.4,"00:15:44",1
"18/10/05","00:30",0.0,19.7,91.7,1018.2,241.2,0.6,2.1,319.8,0.00,18.4,20.5,"00:22:48",1
"18/10/05","00:40",0.0,19.9,90.2,1018.0,293.8,0.7,2.1,75.9,0.00,18.3,20.5,"00:30:40",1
"18/10/05","00:50",0.0,19.8,89.7,1018.0,277.6,0.7,2.4,108.2,0.00,18.1,20.5,"00:48:56",1
"18/10/05","01:00",0.0,20.1,88.3,1018.5,156.2,0.5,2.0,141.5,0.00,18.1,20.5,"00:50:24",1
"18/10/05","01:10",0.0,20.2,87.4,1018.5,32.2,0.5,1.8,124.9,0.00,18.1,20.7,"01:01:52",1
"18/10/05","01:20",0.0,20.3,86.6,1018.5,321.8,0.3,1.3,112.2,0.00,18.0,20.2,"01:15:12",1
"18/10/05","01:30",0.0,20.4,85.9,1018.5,51.3,0.7,1.6,70.2,0.00,18.0,20.4,"01:29:28",1
"18/10/05","01:40",0.0,20.6,84.8,1018.0,61.2,0.7,2.8,126.2,0.00,18.0,20.5,"01:32:56",1
"18/10/05","01:50",0.0,20.6,84.5,1018.2,61.8,0.7,1.6,46.4,0.00,17.9,20.4,"01:49:20",1
"18/10/05","02:00",0.0,20.6,83.7,1018.5,73.4,0.8,3.1,98.0,0.00,17.8,20.4,"01:55:52",1
"18/10/05","02:10",0.0,20.5,84.0,1018.0,104.3,0.8,2.2,115.6,0.00,17.7,20.4,"02:06:32",1
"18/10/05","02:20",0.0,20.4,84.1,1018.0,265.9,0.3,1.1,126.2,0.00,17.7,20.4,"02:10:08",1
"18/10/05","02:30",0.0,20.3,84.4,1017.8,238.7,0.3,1.1,250.7,0.00,17.6,20.4,"02:27:20",1
"18/10/05","02:40",0.0,20.3,84.3,1018.0,215.1,0.5,1.7,113.1,0.00,17.6,20.6,"02:31:44",1
"18/10/05","02:50",0.0,20.5,83.9,1017.8,84.6,0.8,2.8,105.8,0.00,17.7,20.3,"02:46:16",1
"18/10/05","03:00",0.0,20.6,82.8,1018.0,59.8,0.8,2.0,109.9,0.00,17.6,20.4,"02:50:32",1
"18/10/05","03:10",0.0,20.7,82.1,1017.8,62.3,0.8,2.6,149.9,0.00,17.6,20.5,"03:00:16",1
"18/10/05","03:20",0.0,20.7,81.8,1018.2,101.7,0.6,1.4,98.4,0.00,17.5,20.5,"03:16:16",1
"18/10/05","03:30",0.0,20.7,80.8,1017.5,75.8,1.1,2.5,87.8,0.00,17.3,20.2,"03:22:32",1
"18/10/05","03:40",0.0,20.8,80.0,1017.5,77.6,0.8,2.5,19.1,0.00,17.3,20.5,"03:32:40",1
"18/10/05","03:50",0.0,20.8,79.9,1017.8,64.5,0.8,2.0,110.0,0.00,17.2,20.5,"03:41:28",1
"18/10/05","04:00",0.0,20.7,80.0,1017.3,72.3,0.7,1.9,78.9,0.00,17.2,20.3,"03:53:20",1
"18/10/05","04:10",0.0,20.7,80.2,1017.3,81.6,0.6,2.7,123.6,0.00,17.2,20.4,"04:09:20",1
"18/10/05","04:20",0.0,20.7,79.4,1017.3,109.5,0.8,2.2,102.3,0.00,17.0,20.3,"04:11:20",1
"18/10/05","04:30",0.0,20.8,79.1,1017.3,39.0,0.7,3.7,102.5,0.00,17.1,20.3,"04:28:56",1
"18/10/05","04:40",0.0,20.9,77.8,1017.3,133.8,0.8,2.4,112.0,0.00,16.9,20.5,"04:39:12",1
"18/10/05","04:50",0.0,21.1,76.6,1017.3,99.0,1.0,2.1,68.0,0.00,16.9,20.5,"04:41:20",1
"18/10/05","05:00",0.0,21.0,77.0,1017.8,119.7,1.1,2.6,84.0,0.00,16.9,20.2,"04:58:00",1
"18/10/05","05:10",0.0,21.0,77.2,1017.3,100.2,0.8,2.2,130.3,0.00,16.9,20.3,"05:06:56",1
"18/10/05","05:20",0.0,21.0,77.6,1017.5,80.9,0.8,2.9,122.0,0.00,17.0,20.4,"05:17:44",1
"18/10/05","05:30",0.0,21.1,77.2,1017.8,94.8,1.2,3.1,53.3,0.00,17.0,20.4,"05:28:32",1
"18/10/05","05:40",0.0,21.1,77.1,1017.5,87.5,1.1,2.8,130.9,0.00,17.0,20.4,"05:32:00",1
"18/10/05","05:50",0.0,21.0,77.4,1017.3,70.8,0.8,2.2,103.3,0.00,16.9,20.3,"05:46:32",1
"18/10/05","06:00",0.0,20.9,77.9,1017.3,75.7,0.7,1.7,118.1,0.00,16.9,20.2,"05:59:20",1
"18/10/05","06:10",0.0,21.1,77.5,1017.3,95.7,0.8,1.8,112.1,0.00,17.1,20.4,"06:06:08",1
"18/10/05","06:20",0.0,21.0,77.7,1017.1,93.5,0.7,2.2,129.6,0.00,17.0,20.4,"06:16:08",1
"18/10/05","06:30",0.0,21.2,77.5,1017.5,71.0,0.6,1.8,36.8,0.00,17.2,20.2,"06:20:24",1
"18/10/05","06:40",0.0,21.3,76.9,1017.8,67.1,1.0,2.6,109.4,0.00,17.1,20.3,"06:37:44",1
"18/10/05","06:50",0.0,21.4,76.2,1017.8,86.4,1.1,2.4,123.3,0.00,17.1,20.1,"06:42:16",1
"18/10/05","07:00",0.0,21.3,76.8,1018.0,117.8,0.8,2.1,91.5,0.00,17.1,20.3,"06:52:16",1
"18/10/05","07:10",0.0,21.3,77.6,1018.0,108.5,0.6,2.7,143.6,0.00,17.3,20.3,"07:00:08",1
"18/10/05","07:20",0.0,21.2,78.1,1017.5,141.4,0.6,2.2,137.4,0.00,17.3,20.5,"07:15:20",1
"18/10/05","07:30",0.0,21.4,77.4,1017.8,119.3,1.0,2.4,149.6,0.01,17.3,20.5,"07:22:48",1
"18/10/05","07:40",0.0,21.4,77.7,1017.8,47.6,0.6,2.0,71.4,0.01,17.4,20.3,"07:36:32",1
"18/10/05","07:50",0.0,21.4,78.1,1018.0,172.7,0.5,1.4,127.2,0.00,17.5,20.4,"07:44:56",1
"18/10/05","08:00",0.0,21.4,78.0,1017.5,140.9,0.6,2.1,100.8,0.01,17.4,20.4,"07:58:48",1
"18/10/05","08:10",0.0,21.6,77.7,1017.8,101.7,0.7,1.8,128.4,0.01,17.6,20.4,"08:02:32",1
"18/10/05","08:20",0.0,21.6,77.7,1017.5,163.5,0.6,1.8,123.1,0.02,17.6,20.6,"08:16:56",1
"18/10/05","08:30",0.0,21.8,77.7,1017.5,164.3,0.7,1.9,121.3,0.03,17.8,20.5,"08:22:56",1
"18/10/05","08:40",0.0,22.0,77.4,1017.3,115.8,0.6,1.7,129.8,0.05,17.9,20.5,"08:31:28",1
"18/10/05","08:50",0.0,22.1,76.7,1017.5,182.4,0.7,2.4,132.4,0.04,17.9,20.5,"08:49:12",1
"18/10/05","09:00",0.0,22.3,76.3,1017.8,156.4,0.8,2.7,93.9,0.05,18.0,20.7,"08:55:04",1
"18/10/05","09:10",0.0,22.3,74.8,1017.8,109.6,0.8,2.4,143.4,0.03,17.7,20.7,"09:09:12",1
"18/10/05","09:20",0.0,22.3,74.9,1017.8,147.5,1.2,4.7,113.0,0.02,17.7,20.7,"09:13:28",1
"18/10/05","09:30",0.0,22.3,75.2,1017.5,120.4,1.0,2.9,173.4,0.03,17.7,20.5,"09:20:24",1
"18/10/05","09:40",0.2,22.6,75.0,1017.3,114.6,0.8,1.9,111.3,0.05,18.0,20.7,"09:36:24",1
"18/10/05","09:50",0.0,22.5,74.8,1017.5,88.3,0.8,2.7,107.0,0.04,17.8,20.7,"09:49:36",1
"18/10/05","10:00",0.0,22.8,74.4,1017.1,97.8,0.8,1.9,113.5,0.07,18.1,20.6,"09:56:48",1
"18/10/05","10:10",0.0,23.1,73.7,1017.1,89.0,0.6,1.6,125.2,0.08,18.2,20.6,"10:06:32",1
"18/10/05","10:20",0.0,23.2,72.8,1016.8,90.0,0.8,2.2,113.7,0.07,18.1,20.7,"10:10:48",1
"18/10/05","10:30",0.0,23.2,72.1,1016.6,60.8,0.7,1.9,81.4,0.06,17.9,21.0,"10:23:04",1
"18/10/05","10:40",0.0,23.4,72.0,1016.4,67.6,1.0,2.8,87.5,0.08,18.1,20.7,"10:35:20",1
"18/10/05","10:50",0.0,23.4,71.6,1016.6,71.1,1.0,1.9,105.1,0.07,18.0,20.9,"10:44:16",1
"18/10/05","11:00",0.0,23.4,72.0,1016.4,84.9,1.0,2.6,105.0,0.06,18.1,21.1,"10:52:00",1
"18/10/05","11:10",0.0,23.3,73.4,1016.1,98.3,1.0,2.2,91.9,0.08,18.3,20.9,"11:01:12",1
"18/10/05","11:20",0.0,23.5,72.7,1016.1,103.1,0.7,1.9,108.3,0.07,18.4,21.0,"11:14:56",1
"18/10/05","11:30",0.0,23.5,72.6,1016.1,86.2,1.0,2.8,159.1,0.05,18.3,21.0,"11:20:16",1
"18/10/05","11:40",0.0,23.5,72.7,1015.9,8.2,0.7,2.4,49.0,0.05,18.4,21.2,"11:31:28",1
"18/10/05","11:50",0.0,23.6,72.7,1015.6,59.2,0.6,1.6,71.5,0.05,18.5,21.2,"11:48:56",1
"18/10/05","12:00",0.0,23.8,72.8,1015.6,109.4,0.8,2.0,117.1,0.08,18.7,21.1,"11:57:52",1
"18/10/05","12:10",0.0,23.8,72.6,1015.2,78.2,0.8,1.9,117.0,0.05,18.6,21.0,"12:04:40",1
"18/10/05","12:20",0.0,23.8,72.6,1015.4,91.5,0.8,2.2,111.3,0.04,18.6,21.1,"12:16:48",1
"18/10/05","12:30",0.0,23.9,72.8,1014.9,89.6,0.8,2.9,69.4,0.06,18.8,21.2,"12:25:44",1
"18/10/05","12:40",0.0,23.9,73.1,1014.5,97.8,1.0,2.6,93.6,0.06,18.8,21.3,"12:36:48",1
"18/10/05","12:50",0.0,24.0,73.2,1014.2,104.2,1.0,2.0,103.6,0.06,18.9,21.2,"12:41:52",1
"18/10/05","13:00",0.0,24.0,73.4,1014.2,89.2,0.7,1.9,97.8,0.05,19.0,21.2,"12:57:28",1
"18/10/05","13:10",0.0,24.2,72.9,1014.2,99.4,0.7,2.5,117.9,0.05,19.1,21.3,"13:02:08",1
"18/10/05","13:20",0.0,24.3,73.0,1014.2,88.9,0.7,1.8,111.9,0.06,19.2,21.2,"13:15:44",1
"18/10/05","13:30",0.0,24.3,73.1,1013.8,106.2,0.7,3.2,110.4,0.05,19.2,21.5,"13:29:36",1
"18/10/05","13:40",0.0,24.4,72.6,1013.3,99.6,1.2,2.7,106.3,0.08,19.2,21.5,"13:38:08",1
"18/10/05","13:50",0.0,24.5,72.5,1013.8,89.3,1.3,2.9,89.3,0.09,19.3,21.5,"13:42:16",1
"18/10/05","14:00",0.0,24.6,73.3,1013.5,123.7,1.3,3.5,125.1,0.09,19.5,21.4,"13:50:24",1
"18/10/05","14:10",0.0,25.0,72.1,1013.0,113.2,1.1,2.4,113.4,0.14,19.7,21.3,"14:00:56",1
"18/10/05","14:20",0.0,25.0,71.0,1013.3,114.0,1.3,2.5,82.5,0.10,19.4,21.4,"14:15:04",1
"18/10/05","14:30",0.0,25.0,72.3,1013.0,127.1,1.3,2.8,125.0,0.09,19.7,21.5,"14:20:48",1
"18/10/05","14:40",0.0,25.1,71.8,1013.3,105.7,1.2,4.1,110.7,0.09,19.7,21.5,"14:31:12",1
"18/10/05","14:50",0.0,25.1,71.8,1012.6,95.8,1.3,3.2,103.1,0.13,19.7,21.6,"14:44:16",1
"18/10/05","15:00",0.0,25.0,73.2,1012.8,117.5,1.2,2.7,105.0,0.10,19.9,21.7,"14:56:16",1
"18/10/05","15:10",0.0,25.1,71.7,1013.3,104.6,1.3,2.7,102.9,0.09,19.7,21.7,"15:06:40",1
"18/10/05","15:20",0.0,24.9,72.0,1013.3,98.9,1.6,4.1,119.4,0.07,19.5,21.7,"15:10:24",1
"18/10/05","15:30",0.0,25.0,72.1,1013.0,99.4,1.1,3.3,110.8,0.09,19.7,21.7,"15:20:02",1
"18/10/05","15:40",0.0,24.7,72.7,1012.8,93.8,1.2,2.8,104.9,0.03,19.5,21.9,"15:33:04",1
"18/10/05","15:50",0.0,24.5,73.7,1013.3,84.2,0.7,1.8,84.2,0.00,19.5,21.7,"15:49:28",1
"18/10/05","16:00",0.0,24.4,74.3,1013.3,77.5,0.7,2.0,31.9,0.00,19.6,21.7,"15:51:44",1
"18/10/05","16:10",0.0,24.4,74.7,1012.8,91.2,1.2,3.2,50.9,0.00,19.7,21.8,"16:08:32",1
"18/10/05","16:20",0.0,24.5,75.2,1012.8,107.7,1.5,3.2,124.5,0.02,19.9,21.6,"16:14:56",1
"18/10/05","16:30",0.0,24.7,74.9,1013.0,105.5,1.6,3.6,107.9,0.03,20.0,21.8,"16:22:48",1
"18/10/05","16:40",0.0,24.6,75.3,1012.8,108.1,1.3,3.3,119.0,0.01,20.0,21.6,"16:30:02",1
"18/10/05","16:50",0.0,24.6,75.3,1012.8,101.4,1.5,3.1,102.9,0.02,20.0,21.7,"16:40:32",1
"18/10/05","17:00",0.0,24.4,75.6,1012.6,105.3,1.2,3.1,102.2,0.00,19.9,21.8,"16:53:36",1
"18/10/05","17:10",0.0,24.3,76.6,1012.8,104.8,1.1,3.3,140.4,0.00,20.0,21.7,"17:00:48",1
"18/10/05","17:20",0.0,24.2,77.5,1012.6,109.2,1.3,3.7,24.5,0.00,20.1,21.7,"17:12:08",1
"18/10/05","17:30",0.0,24.1,77.9,1013.0,97.2,0.8,1.9,78.5,0.00,20.0,21.7,"17:25:28",1
"18/10/05","17:40",0.0,24.1,77.9,1012.8,69.1,1.0,2.4,73.9,0.00,20.0,21.6,"17:38:56",1
"18/10/05","17:50",0.0,24.1,77.9,1012.8,91.2,1.0,2.7,104.1,0.00,20.0,21.6,"17:40:40",1
"18/10/05","18:00",0.0,24.0,78.3,1012.6,73.1,1.0,2.4,97.2,0.00,20.0,21.7,"17:51:28",1
"18/10/05","18:10",0.0,24.0,78.7,1012.6,62.5,0.7,2.1,75.6,0.00,20.1,21.6,"18:03:20",1
"18/10/05","18:20",0.0,23.9,79.6,1012.8,73.6,0.8,1.9,97.7,0.00,20.2,21.6,"18:16:08",1
"18/10/05","18:30",0.0,23.8,79.9,1012.8,72.5,0.8,2.6,30.3,0.00,20.2,21.7,"18:23:20",1
"18/10/05","18:40",0.0,23.8,80.6,1012.8,71.0,0.6,1.9,105.8,0.00,20.3,21.7,"18:36:32",1
"18/10/05","18:50",0.0,23.7,80.7,1013.0,18.6,0.5,1.3,54.9,0.00,20.2,21.5,"18:43:28",1
"18/10/05","19:00",0.0,23.7,81.2,1012.8,50.4,0.6,2.0,30.6,0.00,20.3,21.7,"18:50:40",1
"18/10/05","19:10",0.0,23.8,81.1,1012.8,47.5,0.8,2.6,109.7,0.00,20.4,21.6,"19:09:04",1
"18/10/05","19:20",0.0,23.8,81.2,1013.0,75.0,0.6,1.6,134.4,0.00,20.4,21.5,"19:10:48",1
"18/10/05","19:30",0.0,23.7,81.9,1013.3,42.0,0.5,1.4,105.3,0.00,20.5,21.6,"19:23:44",1
"18/10/05","19:40",0.0,23.9,81.9,1013.3,76.6,0.8,2.6,62.3,0.00,20.7,21.7,"19:35:04",1
"18/10/05","19:50",0.0,23.9,81.8,1013.3,50.0,0.6,1.8,37.9,0.00,20.6,21.6,"19:40:40",1
"18/10/05","20:00",0.0,23.9,82.1,1013.3,79.5,0.6,1.9,44.6,0.00,20.7,21.5,"19:53:12",1
"18/10/05","20:10",0.0,23.8,82.9,1013.0,34.2,0.5,1.8,120.2,0.00,20.8,21.5,"20:02:48",1
"18/10/05","20:20",0.0,23.7,83.1,1012.8,163.2,0.5,1.2,86.7,0.00,20.7,21.7,"20:10:08",1
"18/10/05","20:30",0.0,23.6,83.8,1012.8,38.3,0.3,0.9,258.6,0.00,20.7,21.6,"20:23:44",1
"18/10/05","20:40",0.0,23.6,84.0,1012.6,236.2,0.5,1.2,121.2,0.00,20.8,21.7,"20:31:04",1
"18/10/05","20:50",0.0,23.5,84.6,1012.8,219.2,0.3,1.4,313.4,0.00,20.8,21.5,"20:41:52",1
"18/10/05","21:00",0.0,23.3,85.4,1012.6,298.1,0.6,1.2,312.6,0.00,20.8,21.5,"20:57:52",1
"18/10/05","21:10",0.0,23.1,86.1,1012.6,295.0,0.6,1.3,305.0,0.00,20.7,21.6,"21:00:56",1
"18/10/05","21:20",0.0,23.1,86.8,1012.8,282.3,0.3,1.3,199.1,0.00,20.8,21.5,"21:12:00",1
"18/10/05","21:30",0.0,23.2,86.9,1012.6,318.8,0.2,0.6,65.8,0.00,20.9,21.6,"21:24:32",1
"18/10/05","21:40",0.0,23.4,86.4,1012.8,322.4,0.3,1.3,49.4,0.00,21.0,21.3,"21:36:16",1
"18/10/05","21:50",0.0,23.5,86.4,1012.6,200.9,0.3,1.0,124.2,0.00,21.1,21.5,"21:40:40",1
"18/10/05","22:00",0.0,23.5,86.4,1012.8,292.0,0.2,0.5,303.8,0.00,21.1,21.4,"21:51:20",1
"18/10/05","22:10",0.0,23.5,86.3,1012.6,338.7,0.3,0.9,94.0,0.00,21.1,21.4,"22:07:36",1
"18/10/05","22:20",0.0,23.6,86.0,1012.1,70.1,0.3,1.0,81.3,0.00,21.2,21.7,"22:11:12",1
"18/10/05","22:30",0.0,23.9,85.6,1012.1,75.7,0.8,3.4,73.4,0.00,21.4,21.6,"22:26:32",1
"18/10/05","22:40",0.0,24.0,84.9,1012.1,104.7,0.6,1.6,87.4,0.00,21.3,21.5,"22:35:36",1
"18/10/05","22:50",0.0,24.1,84.4,1011.6,85.4,0.8,2.8,90.6,0.00,21.3,21.4,"22:46:16",1
"18/10/05","23:00",0.0,24.1,84.4,1012.1,134.8,0.5,1.9,116.7,0.00,21.3,21.5,"22:58:56",1
"18/10/05","23:10",0.0,24.0,84.4,1011.9,77.4,0.6,2.6,128.4,0.00,21.2,21.6,"23:04:40",1
"18/10/05","23:20",0.0,24.1,84.4,1011.9,67.9,0.7,2.1,87.4,0.00,21.3,21.6,"23:17:12",1
"18/10/05","23:30",0.0,24.0,84.4,1011.4,79.5,0.5,1.7,61.2,0.00,21.2,21.7,"23:25:28",1
"18/10/05","23:40",0.0,23.9,84.8,1011.4,105.0,0.5,1.2,69.4,0.00,21.2,21.6,"23:34:32",1
"18/10/05","23:50",0.0,23.9,85.3,1011.4,30.5,0.5,2.5,102.6,0.00,21.3,21.5,"23:49:20",1
"18/10/05","24:00",0.0,23.9,85.6,1011.4,86.6,0.5,1.8,149.2,0.00,21.4,21.5,"23:56:40",1
